Weather in Verkh-Tula

Russia / Novosibirsk Oblast     54°52′50″N   82°46′20″E
temp.,
°C
wind,
m/s
gust,
m/s
humid.,
%
clouds,
%
prec.,
mm/h
press.,
hPa
HPBL,
m
7 march, sun
sun701:00−2sw91595100 0.4 1010787
04:00−6wsw5148695 1.4 1011493
07:00−11sw499065 1.4 1015178
10:00−11wsw489362 0.0 1016257
13:00−8sw478881 0.0 1019408
16:00−6sw488440 0.0 1019547
19:00−10sw348659 0.0 102175
22:00−12s348668 0.0 102229
8 march, mon
mon801:00−13sse458077 0.0 102156
04:00−9sse61092100 0.0 1018248
07:00−5s71392100 0.0 1015468
10:00−5s71388100 0.0 1012443
13:00−3s81485100 0.0 1010548
16:00−1s91582100 0.0 1007708
19:00−2sw71584100 0.0 1006852
22:00−1sw81496100 0.4 1007855
9 march, tue
tue901:00−9w61390100 0.6 1013462
04:00−13wsw4109493 0.0 1019230
07:00−14sw5119297 0.0 1022266
10:00−14ssw6118924 0.0 1024337
13:00−9sw7138244 0.0 1024591
16:00−7sw7137733 0.0 1023803
19:00−9ssw5118547 0.0 1023295
22:00−11ssw499196 0.0 1023189
10 march, wed
wed1001:00−14s449487 0.0 102278
04:00−15s449378 0.0 102164
07:00−15sse459571 0.0 102072
10:00−10s589599 0.0 1017259
13:00−2s6992100 0.1 1014712
16:000s6988100 0.1 1011884
19:000sse61292100 0.1 1007451
22:000s81884100 0.0 1002724
11 march, thu
thu1101:00+1s91787100 0.1 997917
04:00+2ssw917100100 0.8 997759
07:00−6wsw91585100 1.3 1003901
10:00−8sw81688100 0.0 1009662
13:00−5sw91487100 0.1 1011941
16:00−5sw101682100 0.1 10131311
19:00−8sw61483100 0.1 1015924
22:00−10sw61687100 0.0 1018669